Regional Weather Roundup
Issued by NWS Upton, NY

Current Version | Previous Version | Text Only | Print | Product List | Glossary On
Versions: 1 2 3 4 5 6 7 8 9 10 11 12 13 14 15 16 17 18 19 20 21 22 23 24 25 26 27 28 29 30 31 32 33 34 35 36 37 38 39 40 41 42 43 44 45 46 47 48 49 50
000 ASUS41 KOKX 181905 RWROKX REGIONAL WEATHER ROUNDUP NATIONAL WEATHER SERVICE NEW YORK NY 300 PM EDT THU SEP 18 2014 NOTE: "FAIR" INDICATES FEW OR NO CLOUDS BELOW 12,000 FEET WITH NO SIGNIFICANT WEATHER AND/OR OBSTRUCTIONS TO VISIBILITY. NYZ071-072-176-178-NJZ106-104-182000- NEW YORK CITY METRO AREA CITY SKY/WX TMP DP RH WIND PRES REMARKS CENTRAL PARK PTSUNNY 73 47 39 E6 30.00F LAGUARDIA APRT PTSUNNY 75 46 35 NW6 29.98S KENNEDY INTL PTSUNNY 73 47 39 SE8 29.98F NEWARK/LIBERTY MOSUNNY 77 45 32 W8 29.98S BRNX BOT. GARD N/A 72 46 40 NW2 30.00R TETERBORO PTSUNNY 75 45 34 VRB5 29.97S $$ NYZ177-179-078>081-182000- LONG ISLAND NEW YORK CITY SKY/WX TMP DP RH WIND PRES REMARKS FARMINGDALE MOSUNNY 74 46 36 NW3 29.98F ISLIP MOSUNNY 75 44 33 NW13G18 29.97S SHIRLEY SUNNY 75 44 33 NW9 29.98F WESTHAMPTON SUNNY 75 43 31 NW13G20 29.99S MONTAUK POINT N/A 73 48 41 W8 29.99S $$ NYZ052-065-067-182000- HUDSON VALLEY CITY SKY/WX TMP DP RH WIND PRES REMARKS WHITE PLAINS MOSUNNY 73 42 32 NW8 29.98S NEWBURGH NOT AVBL MONTGOMERY CLOUDY 74 44 34 NW10 29.98S POUGHKEEPSIE MOSUNNY 73 45 36 W7 29.98S ALBANY PTSUNNY 69 48 47 NW13G20 30.00S $$ NJZ001-105-106-008-010-013-015-019>022-104-182000- NEW JERSEY CITY SKY/WX TMP DP RH WIND PRES REMARKS NEWARK/LIBERTY MOSUNNY 77 45 32 W8 29.98S TETERBORO PTSUNNY 75 45 34 VRB5 29.97S CALDWELL MOSUNNY 73 44 35 W6 29.99S MORRISTOWN PTSUNNY 73 46 38 W5 29.99S SOMERVILLE NOT AVBL LINDEN FAIR 78 48 34 N5 30.00S SUSSEX MOSUNNY 72 46 39 N9 30.00S ANDOVER N/A 71 46 40 CALM 30.01S TRENTON PTSUNNY 73 48 41 VRB5 29.99S MILLVILLE CLOUDY 72 50 45 NW7 30.00S ATLANTIC CITY CLOUDY 73 52 47 N5 30.00F WRIGHTSTOWN PTSUNNY 75 52 44 VRB5 29.97F TOMS RIVER PTSUNNY 73 46 38 N6 29.99F BELMAR MOSUNNY 75 48 38 NW5 29.99F $$ PAZ047>061-062-071-182000- EASTERN PENNSYLVANIA CITY SKY/WX TMP DP RH WIND PRES REMARKS PHILADELPHIA CLOUDY 71 54 54 SW10 30.01S ALLENTOWN PTSUNNY 74 46 36 NW5 29.99F SCRANTON MOSUNNY 72 42 34 VRB7 30.02S $$ CTZ002-004>006-009-010-012-RIZ004-006-007-MAZ004-011-015-182000- SOUTHERN NEW ENGLAND IN CT CITY SKY/WX TMP DP RH WIND PRES REMARKS BRADLEY INTL MOSUNNY 75 47 36 CALM 29.96F HARTFORD MOSUNNY 71 45 39 VRB6 29.97S DANBURY SUNNY 71 43 36 NW7 30.00F WTRBRY/OXFORD MOSUNNY 70 45 40 N14 30.00S BRIDGEPORT CLOUDY 73 51 46 SW9 29.98S MERIDEN MOSUNNY 75 42 30 W7 29.97F NEW HAVEN PTSUNNY 74 42 31 VRB5 29.97F CHESTER FAIR 72 46 40 N3 29.98F GROTON MOSUNNY 73 46 38 NW10 29.96S WILLIMANTIC PTSUNNY 74 45 35 N7 29.97F IN RI CITY SKY/WX TMP DP RH WIND PRES REMARKS PROVIDENCE PTSUNNY 76 45 33 NW8 29.95F BLOCK ISLAND SUNNY 72 48 43 W12 29.97S WESTERLY MOSUNNY 75 46 35 VRB6 29.97S IN MA CITY SKY/WX TMP DP RH WIND PRES REMARKS BOSTON MOSUNNY 73 45 36 NW7 29.95F WORCESTER PTSUNNY 67 46 47 W8 29.98F WESTFIELD CLOUDY 74 49 41 N10 29.97F PROVINCETOWN SUNNY 68 52 56 NW5 29.96S NANTUCKET SUNNY 71 45 39 NW8 29.95S $$ ANZ330-335-338-340-345-350-353-355-182000- COASTAL MARINE OBSERVATIONS STATION/POSITION TIME SKY/WX TEMP WIND PRES VSBY WAVE AIR SEA DIR/SP/G HT/PER (UTC) (F) (DEG/KT/KT) (MB) (MI) (FT/S) NY HARB ENTRANCE 1900 70 71 250/ 6/ 6 1015.7 3/13 4S FIRE IS 1900 71 N/A 3/13 23SW MTP 1900 N/A 3/12 HUDSON CANYON 1900 68 74 330/ 10/ 12 1015.2 3/13 EXECUTION ROCKS 1900 73 72 200/ 4/ 6 N/A WESTERN LI SOUND 1900 71 190/ 6/ 8 N/A 0 CENTRAL LI SOUND 1800 68 71 240/ 6/ 8 N/A 0 EASTERN LI SOUND 1800 70 69 260/ 6/ 8 N/A ROBBINS REEF 1900 70 170/ 9/ 10 1014.0 $$ >>>>>>>>>>>>>>>>>>>>>>>>>>>> KEY <<<<<<<<<<<<<<<<<<<<<<<<<<< > < > SKY/WX - SKY CONDITION/PRESENT WEATHER < > TMP - TEMPERATURE IN FAHRENHEIT < > DP - DEWPOINT IN FAHRENHEIT < > RH - RELATIVE HUMIDITY IN PERCENT < > WIND - DIRECTION AND SPEED IN MPH < > PRES - MEAN SEA LEVEL PRESSURE IN INCHES OF HG < > WCI - WIND CHILL INDEX < > VSB - VISIBILITY IN MILES < > HX - HEAT INDEX < > TC - TEMPERATURE IN CELSIUS < > VRB - VARIABLE WIND DIRECTION < > < >>>>>>>>>>>>>>>>>>>>>>>>>>>> KEY <<<<<<<<<<<<<<<<<<<<<<<<<<<

USA.gov is the U.S. government's official web portal to all federal, state and local government web resources and services.